Date,TemperatureHighF,TemperatureAvgF,TemperatureLowF,DewpointHighF,DewpointAvgF,DewpointLowF,HumidityHigh,HumidityAvg,HumidityLow,PressureMaxIn,PressureMinIn,WindSpeedMaxMPH,WindSpeedAvgMPH,GustSpeedMaxMPH,PrecipitationSumIn
2013-1-1,40.0,36.4,27.6,32.0,26.7,16.0,81,68,54,29.97,29.80,9,2,13,0.06
2013-1-2,34.5,28.0,23.3,18.0,15.3,12.0,71,60,47,30.14,29.95,10,2,16,0.00
2013-1-3,34.1,28.8,23.7,21.0,17.8,17.0,78,64,51,30.15,30.03,8,1,13,0.00
2013-1-4,37.8,33.4,27.5,24.0,22.8,20.0,75,65,56,30.05,29.92,10,3,22,0.00
2013-1-5,44.0,35.6,30.1,25.0,22.8,20.0,77,60,45,30.25,29.98,8,2,15,0.00
2013-1-6,47.8,39.0,32.4,35.0,29.6,24.0,93,70,50,30.18,29.92,6,1,11,0.00
2013-1-7,47.0,37.7,28.7,32.0,27.1,23.0,86,67,43,30.35,30.01,6,1,12,0.00
2013-1-8,49.5,36.1,24.5,34.0,28.9,22.0,94,77,53,30.38,30.29,8,1,11,0.00
2013-1-9,48.7,39.2,28.3,40.0,33.7,26.0,94,81,69,30.34,30.09,5,1,11,0.00
2013-1-10,49.5,41.7,36.2,35.0,27.9,25.0,72,59,40,30.50,30.20,8,1,13,0.00
2013-1-11,45.8,40.7,34.3,45.0,35.5,26.0,97,82,67,30.48,30.04,5,1,8,0.32
2013-1-12,48.9,45.9,42.9,46.0,44.4,42.0,97,95,89,30.12,30.02,3,0,5,0.01
2013-1-13,48.7,46.3,43.8,47.0,45.5,43.0,98,97,94,30.10,29.95,2,0,4,0.01
2013-1-14,56.4,49.9,39.5,54.0,44.5,31.0,99,83,51,30.25,29.85,4,1,8,0.09
2013-1-15,39.4,37.7,35.5,37.0,30.9,28.0,92,77,65,30.30,30.16,5,1,7,0.12
2013-1-16,36.2,34.2,32.7,35.0,33.1,31.0,97,95,90,30.16,29.78,4,1,10,0.54
2013-1-17,44.2,39.5,36.2,35.0,30.9,26.0,94,72,58,30.05,29.87,7,1,12,0.02
2013-1-18,36.2,30.0,26.3,27.0,14.4,6.0,70,53,35,30.43,29.95,8,2,15,0.00
2013-1-19,50.8,38.9,25.6,30.0,24.8,14.0,76,58,42,30.36,29.88,11,2,16,0.00
2013-1-20,55.3,42.6,30.3,33.0,24.4,13.0,78,52,25,30.00,29.64,16,3,27,0.00
2013-1-21,32.7,28.7,21.8,19.0,13.8,10.0,71,55,45,30.05,29.80,5,1,11,0.00
2013-1-22,26.5,20.0,13.8,12.0,1.8,-4.0,57,46,33,30.17,29.80,17,4,20,0.00
2013-1-23,19.7,14.5,10.0,6.0,-0.5,-5.0,78,52,39,30.21,30.13,7,2,16,0.00
2013-1-24,24.6,17.0,8.2,8.0,2.7,-3.0,87,57,32,30.38,30.08,10,2,21,0.00
2013-1-25,24.1,17.6,11.9,17.0,6.3,-1.0,90,63,44,30.39,30.02,8,1,10,0.00
2013-1-26,28.2,19.5,10.2,13.0,9.6,7.0,91,67,44,30.34,30.01,11,2,15,0.02
2013-1-27,35.8,25.1,15.0,15.0,12.5,9.0,77,60,39,30.48,30.34,12,1,16,0.00
2013-1-28,34.6,30.3,21.2,33.0,26.3,15.0,95,85,68,30.45,29.96,3,1,7,0.07
2013-1-29,55.0,42.0,34.2,45.0,39.3,33.0,97,90,67,30.09,29.96,7,1,9,0.01
2013-1-30,67.4,53.1,41.3,61.0,50.6,41.0,99,92,76,30.01,29.30,7,1,14,0.01
2013-1-31,62.1,45.1,28.9,60.0,32.5,12.0,94,63,39,29.75,29.00,22,7,36,0.66
2013-2-1,31.7,27.7,23.3,20.0,13.2,4.0,79,56,32,30.20,29.76,11,3,21,0.00
2013-2-2,30.9,24.3,17.9,22.0,11.2,7.0,90,59,39,30.26,30.01,9,2,13,0.00
2013-2-3,32.2,26.3,22.8,23.0,21.0,18.0,93,81,62,30.00,29.75,4,1,9,0.02
2013-2-4,30.5,26.6,21.9,21.0,13.4,10.0,82,59,43,29.94,29.77,13,3,20,0.00
2013-2-5,31.8,29.7,26.8,29.0,26.5,21.0,93,87,77,29.92,29.85,3,0,6,0.01
2013-2-6,39.7,33.0,27.2,29.0,23.4,11.0,96,70,47,30.31,29.87,10,2,23,0.01
2013-2-7,33.4,28.9,21.8,24.0,15.1,9.0,71,57,45,30.45,30.26,5,1,8,0.00
2013-2-8,36.1,33.1,28.8,33.0,30.2,24.0,95,89,71,30.26,29.60,9,2,15,0.21
2013-2-9,32.9,28.2,20.0,29.0,18.9,10.0,96,70,45,30.31,29.72,10,3,24,0.07
2013-2-10,37.4,26.0,10.8,23.0,13.9,8.0,89,63,32,30.44,30.27,4,0,7,0.25
2013-2-11,42.8,36.0,29.5,42.0,34.0,22.0,98,92,73,30.28,29.61,2,0,6,0.41
2013-2-12,44.6,39.8,31.7,39.0,28.4,25.0,97,65,52,29.93,29.69,16,3,20,0.04
2013-2-13,43.5,35.0,24.4,33.0,26.9,22.0,94,74,52,29.91,29.64,3,0,6,0.04
2013-2-14,46.9,38.0,31.1,35.0,30.3,26.0,97,76,45,29.95,29.67,5,1,10,0.02
2013-2-15,56.1,42.2,29.0,37.0,32.4,27.0,95,71,44,29.97,29.86,9,1,12,0.00
2013-2-16,40.9,36.2,30.8,35.0,27.7,16.0,94,73,53,29.93,29.70,7,2,10,0.05
2013-2-17,32.6,27.3,18.7,15.0,7.5,2.0,54,44,33,29.98,29.64,20,5,27,0.00
2013-2-18,35.7,26.2,17.0,15.0,8.1,3.0,57,47,34,30.21,29.99,10,3,16,0.00
2013-2-19,48.9,36.7,23.0,43.0,29.8,15.0,95,77,52,30.15,29.64,8,1,16,0.21
2013-2-20,36.8,30.7,25.4,27.0,16.0,11.0,68,55,44,29.95,29.69,16,5,23,0.00
2013-2-21,35.3,28.8,23.7,17.0,14.5,11.0,67,56,45,30.23,29.94,12,4,19,0.00
2013-2-22,38.0,31.3,23.1,33.0,23.3,15.0,86,73,58,30.35,30.21,5,1,8,0.00
2013-2-23,44.9,39.8,36.4,44.0,38.8,33.0,97,96,86,30.22,29.75,8,1,11,0.38
2013-2-24,48.8,39.2,32.9,40.0,32.4,23.0,97,78,56,29.94,29.70,8,2,18,0.02
2013-2-25,44.7,37.3,27.9,31.0,27.4,23.0,87,68,51,30.18,29.94,5,1,9,0.00
2013-2-26,44.2,36.9,27.9,36.0,31.5,26.0,93,81,67,30.23,29.81,11,3,16,0.12
2013-2-27,48.6,42.6,37.6,47.0,39.9,36.0,97,90,76,29.81,29.45,7,2,18,0.87
2013-2-28,52.8,43.0,37.1,39.0,34.8,29.0,92,74,53,29.58,29.50,7,1,13,0.00
2013-3-1,46.6,39.3,33.0,32.0,29.8,27.0,88,70,52,29.74,29.56,10,2,12,0.00
2013-3-2,40.9,35.7,30.8,27.0,25.3,23.0,81,66,55,29.74,29.66,8,2,12,0.00
2013-3-3,39.5,33.0,28.9,23.0,20.5,18.0,72,61,50,29.73,29.63,9,3,15,0.00
2013-3-4,42.3,34.4,27.3,24.0,20.4,16.0,70,58,45,29.87,29.73,18,4,18,0.00
2013-3-5,50.0,38.9,30.0,30.0,25.8,22.0,80,61,43,29.97,29.87,5,1,12,0.00
2013-3-6,42.5,39.9,35.9,36.0,32.7,29.0,84,76,65,29.91,29.77,11,5,23,0.00
2013-3-7,40.4,37.2,33.4,36.0,31.2,28.0,94,79,66,30.03,29.86,9,3,20,0.08
2013-3-8,40.2,34.8,31.2,36.0,32.2,29.0,95,90,72,30.15,29.96,5,1,8,0.41
2013-3-9,57.6,42.6,30.8,29.0,24.0,15.0,77,52,20,30.27,30.13,5,1,10,0.10
2013-3-10,47.9,38.1,28.0,37.0,32.6,26.0,96,81,65,30.34,30.25,6,1,10,0.00
2013-3-11,56.2,45.9,34.3,48.0,41.9,32.0,94,86,63,30.27,30.03,5,1,8,0.00
2013-3-12,57.4,53.0,44.5,57.0,50.0,39.0,97,89,76,30.04,29.61,11,2,17,0.57
2013-3-13,51.2,43.2,36.6,39.0,31.8,25.0,93,67,36,29.85,29.75,9,2,18,0.00
2013-3-14,43.1,35.7,30.6,25.0,14.7,8.0,62,44,29,29.93,29.80,16,5,24,0.00
2013-3-15,47.3,38.7,28.1,32.0,21.8,12.0,62,51,41,29.95,29.67,17,3,17,0.00
2013-3-16,44.0,35.9,32.9,32.0,28.5,22.0,93,76,53,29.87,29.73,5,1,6,0.04
2013-3-17,38.7,33.6,29.1,31.0,21.4,16.0,91,63,43,30.25,29.86,6,1,12,0.01
2013-3-18,35.7,31.2,27.2,33.0,21.3,10.0,95,69,48,30.35,29.96,8,2,13,0.14
2013-3-19,47.9,39.0,34.3,38.0,33.5,19.0,97,82,42,29.95,29.65,12,2,19,0.59
2013-3-20,46.3,38.2,30.8,24.0,20.6,18.0,66,51,33,29.85,29.73,10,3,21,0.00
2013-3-21,40.3,34.9,30.2,29.0,19.5,13.0,86,56,36,29.79,29.59,7,2,12,0.00
2013-3-22,42.5,34.5,26.4,24.0,19.3,14.0,73,55,39,29.84,29.70,12,3,19,0.00
2013-3-23,46.5,39.5,31.1,24.0,21.2,19.0,69,50,36,29.89,29.78,14,4,20,0.00
2013-3-24,47.9,39.8,30.5,29.0,22.8,19.0,65,52,38,29.91,29.65,6,1,12,0.00
2013-3-25,39.7,37.3,34.1,36.0,31.7,27.0,95,81,62,29.65,29.43,10,2,15,0.18
2013-3-26,52.0,42.2,32.3,36.0,31.0,27.0,95,68,40,29.82,29.55,7,1,13,0.00
2013-3-27,52.8,43.5,33.5,32.0,28.6,24.0,74,58,33,29.94,29.82,9,2,15,0.00
2013-3-28,51.2,43.7,34.0,34.0,30.8,29.0,83,62,46,30.06,29.92,7,2,12,0.00
2013-3-29,55.8,44.2,32.6,32.0,29.6,28.0,84,59,36,30.10,30.01,8,2,13,0.00
2013-3-30,59.4,46.6,32.0,34.0,27.0,20.0,87,52,24,30.13,30.01,7,1,13,0.00
2013-3-31,57.6,45.5,31.9,44.0,34.8,25.0,96,69,38,30.07,29.63,6,1,13,0.12
2013-4-1,63.5,49.3,37.7,48.0,38.7,14.0,97,71,36,29.86,29.58,13,3,24,0.01
2013-4-2,44.8,37.5,27.7,19.0,15.4,12.0,66,42,28,30.04,29.88,14,3,21,0.01
2013-4-3,47.4,38.3,29.9,18.0,14.9,11.0,53,40,27,30.26,30.04,14,3,23,0.00
2013-4-4,54.3,41.6,28.8,27.0,20.6,14.0,63,45,30,30.34,30.03,5,1,13,0.00
2013-4-5,64.2,49.9,40.3,34.0,26.6,20.0,73,45,20,30.03,29.66,11,2,13,0.00
2013-4-6,53.7,44.2,34.6,29.0,18.5,10.0,67,39,19,30.26,29.95,7,2,16,0.00
2013-4-7,64.4,52.4,37.5,45.0,36.2,27.0,78,57,31,30.26,29.93,12,2,14,0.00
2013-4-8,75.7,61.0,45.5,47.0,45.3,42.0,90,60,31,30.02,29.92,5,1,10,0.00
2013-4-9,83.7,69.6,49.7,55.0,46.5,38.0,95,50,21,29.91,29.83,10,2,24,0.00
2013-4-10,77.1,65.4,55.8,56.0,52.0,46.0,96,64,44,29.89,29.74,14,2,17,0.43
2013-4-11,60.3,55.4,47.2,59.0,51.3,42.0,98,86,70,29.97,29.71,10,2,12,0.01
2013-4-12,48.7,43.9,42.0,43.0,41.7,41.0,96,92,74,29.95,29.66,9,3,16,0.52
2013-4-13,59.4,49.9,38.4,43.0,39.3,36.0,98,70,44,29.93,29.70,8,1,14,0.02
2013-4-14,60.0,52.3,41.9,43.0,35.5,30.0,94,57,33,30.16,29.92,13,2,18,0.00
2013-4-15,54.6,49.4,43.3,43.0,34.6,28.0,87,58,45,30.32,30.16,9,2,10,0.00
2013-4-16,70.9,59.0,46.3,57.0,50.7,43.0,90,75,59,30.32,30.06,7,2,12,0.00
2013-4-17,72.5,62.4,50.8,57.0,45.1,33.0,91,58,24,30.24,30.05,5,1,9,0.00
2013-4-18,55.1,51.5,46.1,53.0,46.3,42.0,95,83,71,30.29,30.04,5,1,10,0.01
2013-4-19,78.3,66.7,53.8,66.0,61.0,52.0,99,83,63,30.04,29.58,8,2,18,0.15
2013-4-20,60.0,52.9,47.1,57.0,37.0,26.0,94,58,35,30.25,29.65,12,4,18,0.12
2013-4-21,54.5,45.4,35.3,32.0,25.5,20.0,73,47,30,30.56,30.26,6,1,9,0.00
2013-4-22,51.7,44.8,33.4,40.0,34.1,31.0,93,68,48,30.60,30.43,11,3,16,0.00
2013-4-23,52.2,45.6,40.9,43.0,38.2,33.0,88,75,64,30.42,30.07,7,2,9,0.00
2013-4-24,75.3,56.4,37.1,55.0,46.8,35.0,95,73,47,30.07,29.75,8,1,11,0.00
2013-4-25,65.9,56.6,46.6,55.0,34.2,27.0,84,46,24,30.21,29.80,16,2,21,0.00
2013-4-26,66.9,55.0,42.1,39.0,32.3,23.0,72,46,20,30.35,30.21,6,1,11,0.00
2013-4-27,70.2,56.8,39.8,36.0,32.8,29.0,79,44,23,30.38,30.22,5,1,9,0.00
2013-4-28,72.2,57.7,40.5,46.0,38.1,32.0,85,51,31,30.27,30.13,6,1,9,0.00
2013-4-29,56.3,53.6,51.5,52.0,49.2,43.0,93,85,61,30.18,30.12,4,1,9,0.14
2013-4-30,63.7,55.2,44.3,50.0,42.8,30.0,93,66,30,30.28,30.15,5,1,11,0.00
2013-5-1,66.1,52.7,37.3,46.0,40.4,32.0,93,67,29,30.43,30.28,7,1,13,0.00
2013-5-2,70.2,56.9,39.2,48.0,43.6,38.0,97,65,38,30.42,30.27,3,0,7,0.00
2013-5-3,61.7,55.0,46.3,48.0,42.8,38.0,90,65,46,30.40,30.31,5,1,8,0.00
2013-5-4,66.1,53.0,41.6,50.0,43.6,40.0,97,73,46,30.32,30.20,5,1,9,0.00
2013-5-5,59.7,50.5,41.3,45.0,42.5,39.0,92,75,54,30.24,30.18,10,1,10,0.00
2013-5-6,65.0,54.7,45.3,54.0,48.3,43.0,93,80,65,30.21,30.11,4,1,8,0.00
2013-5-7,69.3,58.2,45.8,60.0,53.5,44.0,97,85,66,30.12,30.03,5,1,9,0.00
2013-5-8,66.2,60.0,52.8,62.0,58.2,52.0,98,94,84,30.04,29.91,5,1,10,0.83
2013-5-9,68.6,59.7,51.7,61.0,55.8,51.0,98,88,65,29.95,29.84,4,0,10,0.08
2013-5-10,81.3,68.1,54.7,61.0,58.1,54.0,98,73,44,29.95,29.83,4,0,9,0.07
2013-5-11,74.1,65.2,62.3,67.0,63.1,59.0,97,93,74,29.85,29.65,6,0,11,0.04
2013-5-12,68.3,60.8,51.0,61.0,43.9,29.0,96,58,29,29.90,29.62,11,2,21,0.02
2013-5-13,55.7,50.0,41.4,36.0,31.4,27.0,76,51,34,30.07,29.90,8,1,18,0.01
2013-5-14,62.4,51.0,37.4,37.0,31.4,23.0,83,52,22,30.10,29.97,5,1,18,0.01
2013-5-15,75.8,60.6,44.1,59.0,49.5,35.0,81,68,50,30.02,29.63,4,1,7,0.00
2013-5-16,81.9,68.8,56.9,63.0,57.8,49.0,95,70,42,29.78,29.66,2,0,10,0.02
2013-5-17,75.2,64.6,53.2,48.0,44.1,40.0,71,49,31,30.14,29.78,4,1,12,0.00
2013-5-18,63.7,58.2,52.2,57.0,52.3,47.0,88,81,67,30.26,30.15,1,0,4,0.00
2013-5-19,58.2,56.9,55.3,57.0,55.9,54.0,98,96,87,30.25,30.11,2,0,5,0.18
2013-5-20,80.1,68.1,57.4,69.0,63.6,57.0,99,87,66,30.13,29.91,5,0,9,0.00
2013-5-21,86.8,75.0,62.1,73.0,68.1,61.0,99,81,61,29.92,29.79,6,0,8,0.00
2013-5-22,81.5,71.7,61.3,73.0,67.2,59.0,97,86,72,29.88,29.77,2,0,5,0.00
2013-5-23,82.0,73.8,69.0,71.0,68.8,66.0,93,85,66,29.83,29.70,4,1,12,0.03
2013-5-24,68.8,55.7,46.2,67.0,53.2,42.0,98,91,79,29.92,29.63,5,1,13,0.56
2013-5-25,59.5,50.6,44.5,45.0,42.5,38.0,94,75,53,29.98,29.87,14,2,26,0.09
2013-5-26,68.7,57.7,47.2,41.0,38.5,34.0,76,52,30,30.15,29.94,8,2,20,0.00
2013-5-27,75.1,60.6,42.7,45.0,41.6,38.0,84,54,29,30.20,30.07,5,1,10,0.00
2013-5-28,66.9,58.6,51.1,59.0,53.3,45.0,98,84,58,30.17,30.07,2,0,4,0.33
2013-5-29,88.0,71.3,59.1,72.0,64.6,59.0,99,82,50,30.08,29.94,3,0,8,0.00
2013-5-30,92.4,81.5,69.6,72.0,67.2,64.0,90,65,40,30.08,30.00,5,0,11,0.00
2013-5-31,93.2,82.1,68.8,74.0,66.6,62.0,90,62,38,30.07,29.93,3,0,9,0.00
2013-6-1,91.1,80.8,67.6,74.0,68.6,65.0,94,68,45,29.97,29.83,4,0,6,0.00
2013-6-2,88.6,80.7,69.5,72.0,69.6,67.0,93,70,49,29.86,29.72,4,1,14,0.43
2013-6-3,80.3,72.1,63.3,71.0,68.3,59.0,98,88,66,29.83,29.74,3,0,5,0.63
2013-6-4,76.4,66.2,56.5,56.0,47.8,45.0,77,53,34,30.06,29.84,4,1,12,0.00
2013-6-5,71.1,62.1,49.8,56.0,48.5,43.0,91,63,43,30.16,30.06,3,0,8,0.00
2013-6-6,71.1,62.8,55.6,61.0,58.4,54.0,97,86,61,30.09,29.95,4,1,9,0.15
2013-6-7,63.6,61.3,59.9,63.0,60.7,59.0,98,98,97,29.95,29.56,7,1,8,2.59
2013-6-8,77.6,68.2,57.1,66.0,62.4,56.0,98,83,63,30.00,29.53,7,1,10,0.06
2013-6-9,83.0,72.0,59.0,63.0,60.8,58.0,97,71,47,30.12,30.00,5,0,10,0.00
2013-6-10,68.9,65.8,63.8,66.0,64.2,62.0,99,94,85,30.10,29.75,4,0,7,1.08
2013-6-11,80.5,74.0,66.6,70.0,67.0,62.0,99,80,61,29.75,29.57,6,1,18,0.03
2013-6-12,80.1,71.7,62.9,63.0,58.3,55.0,82,64,45,29.80,29.66,6,1,12,0.00
2013-6-13,66.2,62.5,57.1,63.0,60.1,55.0,96,92,83,29.79,29.39,6,1,10,0.90
2013-6-14,71.2,60.7,53.9,63.0,55.7,52.0,96,85,59,29.84,29.48,6,1,10,0.23
2013-6-15,81.2,69.5,56.3,63.0,57.2,55.0,97,69,41,29.97,29.84,7,0,10,0.00
2013-6-16,82.7,71.4,58.3,67.0,61.3,56.0,93,73,44,29.94,29.72,3,0,12,0.00
2013-6-17,85.6,75.4,64.6,70.0,66.1,63.0,97,74,53,29.86,29.78,6,0,8,0.00
2013-6-18,83.6,70.8,63.2,72.0,65.9,62.0,97,85,60,29.84,29.75,3,0,10,0.14
2013-6-19,78.4,68.6,58.3,62.0,54.9,48.0,96,66,37,30.11,29.82,3,0,8,0.00
2013-6-20,81.1,69.9,55.1,63.0,57.0,53.0,94,66,46,30.21,30.11,4,0,7,0.00
2013-6-21,83.4,72.1,57.7,61.0,56.0,50.0,85,59,44,30.25,30.17,4,0,9,0.00
2013-6-22,85.4,73.1,57.5,67.0,60.6,53.0,91,66,49,30.21,30.06,4,0,8,0.00
2013-6-23,88.3,76.1,64.2,74.0,68.0,61.0,96,78,56,30.14,30.00,5,0,8,0.07
2013-6-24,93.3,80.6,71.2,76.0,70.8,63.0,98,75,47,30.02,29.91,4,0,13,0.00
2013-6-25,91.6,78.6,67.2,78.0,70.1,65.0,96,76,51,29.95,29.76,5,0,13,0.23
2013-6-26,87.8,79.1,72.2,74.0,69.6,66.0,92,74,54,29.80,29.73,5,0,11,0.01
2013-6-27,87.8,78.2,71.0,75.0,72.2,70.0,97,83,60,29.77,29.50,4,1,8,0.25
2013-6-28,86.5,77.7,71.9,74.0,70.8,67.0,96,80,58,29.52,29.42,3,0,11,0.03
2013-6-29,86.5,77.6,67.1,74.0,68.4,66.0,96,75,52,29.64,29.43,3,0,10,0.00
2013-6-30,85.9,76.5,70.0,77.0,72.7,69.0,98,88,73,29.85,29.64,3,0,5,0.06
2013-7-1,77.4,74.8,72.4,75.0,73.0,71.0,98,94,89,29.99,29.84,2,0,10,1.31
2013-7-2,84.6,77.2,72.9,76.0,73.5,72.0,97,89,72,30.13,29.99,2,0,8,0.05
2013-7-3,86.3,78.2,71.5,78.0,74.0,70.0,96,87,72,30.19,30.11,3,0,7,0.08
2013-7-4,89.3,82.2,74.8,77.0,74.7,73.0,97,79,61,30.20,30.09,4,0,10,0.00
2013-7-5,92.0,83.5,73.8,78.0,74.1,72.0,96,75,56,30.16,30.03,3,0,12,0.00
2013-7-6,93.2,83.7,75.1,78.0,74.4,73.0,93,75,53,30.09,29.97,5,0,9,0.00
2013-7-7,93.2,85.1,75.4,78.0,74.2,70.0,91,71,54,30.01,29.87,8,0,11,0.00
2013-7-8,88.9,79.3,70.7,74.0,69.9,67.0,91,74,54,29.99,29.92,5,0,10,0.00
2013-7-9,89.2,79.6,69.8,75.0,71.0,67.0,94,77,56,30.02,29.93,3,0,17,0.03
2013-7-10,87.3,80.3,72.3,78.0,73.5,71.0,96,81,62,29.96,29.75,4,0,12,0.00
2013-7-11,86.2,79.9,74.8,75.0,71.7,66.0,88,76,59,29.87,29.75,4,0,7,0.00
2013-7-12,78.8,73.1,68.7,70.0,67.0,64.0,97,81,69,30.03,29.86,4,0,10,0.39
2013-7-13,81.1,74.0,68.6,77.0,72.6,68.0,99,95,84,30.22,30.03,4,0,5,0.06
2013-7-14,91.0,82.5,74.5,78.0,74.6,72.0,97,79,57,30.29,30.18,4,0,10,0.00
2013-7-15,95.8,84.7,74.0,78.0,74.3,71.0,91,73,52,30.20,30.07,4,0,8,0.00
2013-7-16,94.1,84.8,73.4,74.0,70.9,67.0,90,66,43,30.15,30.07,4,0,7,0.00
2013-7-17,96.5,85.9,73.2,76.0,72.6,71.0,94,67,46,30.14,30.00,2,0,8,0.00
2013-7-18,97.3,88.4,77.4,78.0,74.6,72.0,84,65,45,30.02,29.90,4,0,7,0.00
2013-7-19,96.9,88.4,79.5,81.0,77.9,76.0,91,72,52,29.92,29.74,4,0,15,0.02
2013-7-20,92.7,83.1,74.9,78.0,74.3,71.0,96,76,56,29.78,29.67,5,0,13,0.15
2013-7-21,88.1,79.3,72.7,74.0,69.6,65.0,97,74,49,29.90,29.78,3,0,5,0.01
2013-7-22,86.5,77.8,72.6,76.0,73.0,68.0,98,86,64,29.90,29.74,4,0,5,0.22
2013-7-23,87.4,79.2,71.8,76.0,73.7,71.0,98,84,65,29.73,29.51,4,0,12,0.22
2013-7-24,83.5,76.2,67.6,71.0,66.1,56.0,92,72,55,29.88,29.57,4,1,9,0.00
2013-7-25,67.7,66.1,64.0,60.0,56.2,51.0,85,71,63,29.99,29.87,4,1,9,0.01
2013-7-26,83.6,72.3,64.9,66.0,61.8,59.0,87,71,49,29.99,29.94,3,0,10,0.00
2013-7-27,84.6,74.0,62.7,70.0,64.8,62.0,98,75,47,30.00,29.89,3,0,6,0.00
2013-7-28,81.5,72.3,65.4,72.0,68.3,64.0,98,88,68,29.93,29.84,3,0,7,0.45
2013-7-29,83.9,74.5,65.6,71.0,64.8,57.0,98,75,42,30.06,29.90,6,0,11,0.02
2013-7-30,81.7,71.4,58.7,62.0,59.4,56.0,92,68,46,30.12,30.05,5,0,9,0.00
2013-7-31,83.2,72.6,59.4,65.0,61.3,58.0,95,70,46,30.11,29.98,3,0,6,0.00
2013-8-1,71.9,69.3,67.0,69.0,66.5,64.0,98,91,81,29.98,29.78,2,0,4,0.72
2013-8-2,84.1,74.8,64.2,69.0,65.7,61.0,99,76,48,29.87,29.74,4,0,11,0.00
2013-8-3,78.1,71.0,66.9,69.0,65.4,61.0,91,82,71,29.87,29.80,4,0,9,0.03
2013-8-4,80.9,71.3,60.2,65.0,59.9,54.0,96,70,46,29.93,29.81,6,1,13,0.00
2013-8-5,77.8,68.3,57.8,59.0,53.1,49.0,83,61,38,30.01,29.92,4,0,8,0.00
2013-8-6,82.0,70.9,58.5,65.0,59.1,55.0,94,69,42,30.07,29.98,5,0,9,0.00
2013-8-7,78.9,72.2,66.1,69.0,66.5,63.0,92,83,68,30.09,30.00,3,0,6,0.00
2013-8-8,82.5,74.1,69.1,77.0,71.8,68.0,98,93,76,30.01,29.95,4,0,6,1.17
2013-8-9,85.5,78.1,72.2,78.0,74.5,71.0,98,89,74,29.96,29.75,5,0,10,0.04
2013-8-10,83.6,76.0,67.6,73.0,67.5,64.0,97,76,57,30.00,29.82,5,0,8,0.00
2013-8-11,82.2,72.6,60.4,66.0,60.7,56.0,93,69,47,30.07,29.97,3,0,9,0.00
2013-8-12,81.3,73.9,68.8,71.0,68.4,66.0,97,84,63,29.98,29.87,2,0,4,0.44
2013-8-13,77.3,71.6,68.4,71.0,68.7,66.0,98,91,76,29.88,29.64,3,0,7,0.61
2013-8-14,73.7,67.0,57.9,66.0,55.1,52.0,90,67,51,30.00,29.71,6,1,14,0.00
2013-8-15,77.5,66.2,53.6,57.0,53.4,49.0,92,67,41,30.10,30.00,3,0,8,0.00
2013-8-16,80.9,68.5,54.7,62.0,55.8,53.0,97,68,39,30.15,30.08,3,0,6,0.00
2013-8-17,83.2,69.8,56.4,63.0,57.8,55.0,96,69,42,30.22,30.16,2,0,5,0.00
2013-8-18,77.3,69.1,62.6,65.0,61.0,59.0,90,76,55,30.20,30.08,1,0,3,0.00
2013-8-19,77.6,69.8,62.2,68.0,63.7,60.0,96,82,61,30.08,29.99,4,0,7,0.00
2013-8-20,87.1,75.6,63.1,71.0,66.1,62.0,98,75,49,30.08,30.00,1,0,8,0.00
2013-8-21,88.8,77.4,64.8,69.0,65.3,62.0,97,70,42,30.13,30.00,3,0,8,0.00
2013-8-22,78.4,72.7,69.9,74.0,70.7,68.0,98,93,83,30.01,29.83,1,0,6,0.73
2013-8-23,81.6,73.5,66.1,71.0,63.7,56.0,98,74,43,30.04,29.83,5,0,7,0.00
2013-8-24,79.5,70.0,60.1,60.0,55.6,50.0,90,62,39,30.30,30.05,3,0,7,0.00
2013-8-25,80.9,69.0,55.3,63.0,57.3,54.0,98,70,43,30.35,30.19,3,0,7,0.00
2013-8-26,82.3,73.3,64.3,70.0,63.9,58.0,87,73,59,30.19,29.86,5,0,12,0.01
2013-8-27,86.8,77.9,69.6,71.0,69.4,68.0,95,77,56,29.86,29.78,4,0,9,0.04
2013-8-28,85.0,74.7,68.6,75.0,71.3,67.0,97,89,67,29.84,29.79,1,0,7,0.04
2013-8-29,79.2,72.9,69.4,71.0,68.8,66.0,98,87,71,29.98,29.83,4,0,4,0.01
2013-8-30,83.8,75.2,68.6,73.0,69.2,66.0,93,82,64,29.98,29.81,4,0,9,0.00
2013-8-31,86.6,78.3,70.1,76.0,72.4,68.0,95,83,69,29.82,29.73,2,0,7,0.00
2013-9-1,85.9,77.6,72.9,76.0,73.1,71.0,96,86,70,29.80,29.73,4,0,6,0.01
2013-9-2,82.5,75.5,71.6,75.0,72.9,70.0,97,92,73,29.75,29.65,1,0,4,0.18
2013-9-3,80.9,74.0,65.4,72.0,66.3,59.0,98,79,50,29.84,29.66,6,0,9,0.00
2013-9-4,80.0,70.2,59.9,62.0,59.6,58.0,94,71,49,29.96,29.84,3,0,11,0.00
2013-9-5,77.5,68.2,56.9,64.0,55.5,45.0,90,67,35,30.10,29.89,6,1,11,0.00
2013-9-6,70.9,60.9,49.0,50.0,46.5,43.0,88,62,38,30.20,30.09,4,0,7,0.00
2013-9-7,78.3,65.1,49.9,57.0,51.5,48.0,95,65,39,30.09,29.86,3,0,9,0.00
2013-9-8,81.2,71.4,61.8,67.0,58.1,47.0,86,64,42,30.02,29.78,8,0,14,0.00
2013-9-9,72.2,63.7,51.0,61.0,52.8,46.0,84,69,51,30.19,30.03,3,0,6,0.00
2013-9-10,86.7,76.3,66.8,75.0,69.6,61.0,90,80,67,30.11,30.00,2,0,9,0.00
2013-9-11,93.9,83.3,73.1,79.0,74.7,72.0,96,77,58,30.06,29.92,3,0,9,0.00
2013-9-12,87.0,77.8,68.7,77.0,72.1,68.0,97,83,68,29.93,29.63,5,0,10,0.20
2013-9-13,75.5,68.1,58.4,68.0,61.0,51.0,97,79,55,29.81,29.59,5,1,12,0.08
2013-9-14,66.9,58.1,49.7,51.0,48.6,46.0,91,72,54,30.09,29.82,5,1,11,0.00
2013-9-15,72.1,59.1,45.5,54.0,48.5,44.0,93,71,41,30.17,30.03,4,0,7,0.00
2013-9-16,70.8,61.9,55.2,60.0,55.1,50.0,96,80,55,30.18,29.99,4,0,7,0.06
2013-9-17,64.4,55.6,45.4,50.0,41.6,38.0,91,62,41,30.39,30.19,4,1,10,0.00
2013-9-18,70.4,57.2,43.0,53.0,46.2,41.0,96,71,40,30.31,30.14,3,0,6,0.00
2013-9-19,75.2,61.2,47.9,56.0,51.0,46.0,97,73,43,30.15,30.02,3,0,8,0.00
2013-9-20,78.8,65.1,52.7,62.0,57.0,52.0,98,77,52,30.04,29.94,2,0,6,0.00
2013-9-21,78.7,65.9,51.0,68.0,60.1,50.0,98,83,49,29.96,29.61,6,1,10,0.08
2013-9-22,69.1,62.8,53.9,67.0,53.2,42.0,97,73,50,29.87,29.60,5,1,11,0.36
2013-9-23,64.7,55.6,45.8,46.0,43.9,42.0,88,66,50,30.00,29.87,4,1,10,0.01
2013-9-24,72.6,57.0,41.7,50.0,45.5,40.0,96,69,42,30.01,29.83,4,0,9,0.00
2013-9-25,71.8,58.8,44.3,52.0,47.9,42.0,95,70,41,29.92,29.82,2,0,5,0.00
2013-9-26,71.8,59.6,49.2,60.0,54.8,48.0,98,85,65,30.05,29.89,3,0,5,0.00
2013-9-27,72.1,61.1,50.1,57.0,53.4,49.0,96,77,52,30.21,30.05,3,0,8,0.00
2013-9-28,73.4,61.8,52.1,56.0,53.0,51.0,95,75,48,30.27,30.18,4,0,7,0.00
2013-9-29,69.9,58.8,48.7,59.0,53.4,48.0,98,83,64,30.18,30.03,2,0,5,0.00
2013-9-30,74.2,60.2,47.0,56.0,52.0,46.0,98,77,46,30.04,29.92,2,0,7,0.00
2013-10-1,80.2,65.9,51.9,62.0,56.9,50.0,96,75,48,29.96,29.85,3,0,7,0.00
2013-10-2,82.9,69.3,55.3,64.0,59.9,54.0,96,74,51,29.97,29.86,4,0,11,0.00
2013-10-3,79.1,68.2,55.6,61.0,58.3,54.0,98,73,45,30.07,29.97,2,0,4,0.00
2013-10-4,84.8,71.6,58.4,68.0,63.2,56.0,96,77,54,30.01,29.91,3,0,9,0.00
2013-10-5,76.6,69.3,64.5,67.0,65.0,63.0,96,86,72,30.05,29.96,3,0,4,0.00
2013-10-6,69.1,66.9,65.1,68.0,65.8,64.0,98,96,93,30.04,29.97,3,0,7,0.00
2013-10-7,78.9,66.5,56.8,72.0,64.5,52.0,99,93,68,29.97,29.70,6,1,15,0.07
2013-10-8,67.2,57.0,47.4,52.0,47.7,45.0,96,74,46,30.27,29.95,3,0,9,0.04
2013-10-9,62.2,56.2,50.0,51.0,47.4,42.0,81,73,66,30.34,30.23,5,1,9,0.02
2013-10-10,61.8,57.6,52.1,56.0,52.3,48.0,91,82,77,30.22,30.01,8,1,8,0.01
2013-10-11,67.1,62.7,57.1,61.0,58.0,55.0,92,85,72,30.03,29.95,5,1,10,0.01
2013-10-12,71.3,65.1,58.2,58.0,51.2,40.0,78,62,38,30.21,30.01,6,1,11,0.01
2013-10-13,66.3,59.7,53.6,55.0,52.6,49.0,85,78,65,30.33,30.21,5,1,9,0.01
2013-10-14,66.5,55.7,45.6,52.0,49.1,45.0,97,80,56,30.31,30.19,3,0,4,0.00
2013-10-15,71.2,56.7,46.8,57.0,48.6,41.0,98,78,44,30.21,30.07,3,0,5,0.01
2013-10-16,69.0,59.9,49.7,60.0,55.8,48.0,96,87,70,30.07,29.87,5,0,5,0.00
2013-10-17,73.4,65.6,60.5,64.0,61.7,59.0,97,88,68,29.87,29.64,3,0,5,0.01
2013-10-18,66.4,60.3,49.2,64.0,48.3,43.0,92,66,47,29.94,29.63,8,2,20,0.00
2013-10-19,64.2,53.3,42.2,55.0,46.7,41.0,95,79,52,29.95,29.71,2,0,7,0.00
2013-10-20,62.3,53.9,44.6,55.0,41.7,35.0,91,66,36,30.02,29.72,6,1,12,0.02
2013-10-21,67.8,53.4,39.5,46.0,40.6,37.0,92,66,36,30.11,29.94,4,0,8,0.00
2013-10-22,65.6,51.7,40.9,53.0,45.3,37.0,97,80,60,29.93,29.72,5,0,11,0.00
2013-10-23,55.4,46.5,38.6,43.0,38.1,35.0,91,74,53,29.77,29.57,4,0,15,0.00
2013-10-24,53.5,44.1,36.0,36.0,31.9,27.0,91,66,38,29.98,29.73,9,1,15,0.00
2013-10-25,53.7,43.5,34.5,36.0,31.6,29.0,85,65,40,30.19,29.98,7,1,15,0.00
2013-10-26,55.0,44.4,32.0,35.0,32.3,30.0,92,66,40,30.18,29.86,8,1,24,0.00
2013-10-27,57.2,49.1,40.5,37.0,33.8,32.0,73,57,41,30.08,29.82,9,1,20,0.00
2013-10-28,60.8,46.8,33.6,37.0,34.2,31.0,90,65,39,30.26,30.09,6,1,13,0.00
2013-10-29,56.8,46.8,39.0,38.0,35.5,33.0,85,66,45,30.36,30.26,3,0,6,0.00
2013-10-30,60.0,49.1,38.7,52.0,43.6,34.0,89,81,70,30.31,30.13,2,0,6,0.00
2013-10-31,67.5,59.2,48.5,63.0,55.9,47.0,96,89,76,30.18,29.76,3,0,8,0.06
2013-11-1,69.3,64.6,54.1,64.0,59.2,53.0,95,83,62,29.76,29.51,11,2,19,0.03
2013-11-2,67.9,56.8,49.6,53.0,48.0,41.0,97,75,48,29.74,29.57,6,0,10,0.00
2013-11-3,51.3,45.0,33.2,43.0,33.4,22.0,88,65,41,30.41,29.74,11,1,13,0.00
2013-11-4,45.4,37.1,28.8,27.0,21.1,18.0,76,55,34,30.61,30.41,3,0,8,0.00
2013-11-5,56.7,44.8,33.2,43.0,36.8,26.0,89,74,57,30.60,30.43,3,0,7,0.00
2013-11-6,63.7,51.3,37.8,52.0,45.4,37.0,97,81,58,30.45,30.02,2,0,6,0.00
2013-11-7,62.8,53.1,37.1,58.0,48.9,33.0,97,86,67,30.02,29.71,5,1,12,0.05
2013-11-8,49.0,42.6,37.0,37.0,30.4,26.0,85,63,44,30.19,29.90,12,2,14,0.01
2013-11-9,51.8,41.9,32.0,34.0,29.6,27.0,84,64,40,30.25,29.95,9,1,9,0.00
2013-11-10,61.7,48.1,38.4,40.0,34.1,28.0,84,61,40,30.02,29.78,19,3,23,0.00
2013-11-11,53.2,47.4,37.0,35.0,30.3,26.0,68,52,43,30.17,29.92,10,2,13,0.00
2013-11-12,50.5,38.2,28.8,37.0,25.7,18.0,86,62,49,30.26,29.89,7,2,18,0.01
2013-11-13,40.2,31.6,24.4,20.0,17.0,12.0,77,57,33,30.33,30.24,8,1,15,0.00
2013-11-14,52.8,40.5,29.5,23.0,19.8,16.0,69,47,25,30.23,30.12,12,2,15,0.00
2013-11-15,57.2,43.2,29.6,33.0,27.6,22.0,82,56,32,30.21,30.11,3,0,7,0.00
2013-11-16,60.3,49.3,42.5,47.0,41.7,30.0,97,76,53,30.29,30.18,3,0,5,0.04
2013-11-17,60.7,54.6,45.7,59.0,52.9,45.0,98,94,89,30.22,29.75,2,0,6,0.00
2013-11-18,65.1,59.8,50.6,63.0,42.8,27.0,96,58,32,29.74,29.55,21,3,21,0.08
2013-11-19,50.1,43.5,34.3,29.0,25.8,23.0,63,50,43,30.30,29.74,11,3,18,0.00
2013-11-20,45.4,35.1,27.5,23.0,17.7,8.0,77,53,22,30.56,30.30,5,1,8,0.00
2013-11-21,51.5,41.1,26.0,42.0,31.8,18.0,82,70,55,30.56,30.34,5,1,8,0.00
2013-11-22,57.7,51.7,47.2,51.0,47.5,42.0,96,85,77,30.33,29.86,7,1,10,0.07
2013-11-23,53.0,42.2,30.5,49.0,26.9,11.0,93,56,35,29.99,29.86,16,3,20,0.00
2013-11-24,29.9,25.6,22.3,12.0,5.0,3.0,50,42,33,30.35,29.98,13,4,26,0.00
2013-11-25,35.8,28.2,19.0,17.0,12.4,7.0,64,52,43,30.45,30.29,6,1,10,0.00
2013-11-26,51.9,36.3,31.9,51.0,27.8,17.0,98,73,51,30.29,29.70,8,1,11,0.59
2013-11-27,62.5,46.5,33.9,62.0,43.5,22.0,99,89,62,29.73,29.32,10,3,19,1.50
2013-11-28,35.8,31.2,25.8,23.0,16.0,12.0,74,55,38,30.43,29.74,15,3,20,0.01
2013-11-29,40.3,31.9,26.3,23.0,20.8,17.0,81,64,47,30.69,30.42,5,1,8,0.00
2013-11-30,36.8,31.2,22.9,31.0,21.9,13.0,78,69,53,30.71,30.33,4,1,6,0.00
2013-12-1,48.8,40.3,29.2,34.0,30.9,26.0,91,70,54,30.32,29.97,5,0,7,0.00
2013-12-2,50.5,41.2,33.6,35.0,32.1,30.0,91,71,50,29.96,29.83,2,0,5,0.00
2013-12-3,54.7,41.4,33.7,39.0,35.0,31.0,95,80,51,29.96,29.82,4,0,7,0.00
2013-12-4,49.9,42.7,33.4,46.0,38.9,31.0,96,86,73,30.08,29.96,3,0,4,0.00
2013-12-5,57.5,52.4,47.3,57.0,51.2,46.0,98,96,90,30.06,29.88,2,0,6,0.02
2013-12-6,61.5,48.4,38.0,61.0,47.1,37.0,98,95,91,30.11,29.82,6,1,11,0.77
2013-12-7,41.3,36.1,30.3,37.0,29.2,19.0,96,77,56,30.47,30.05,7,1,13,0.12
2013-12-8,32.8,29.5,26.5,29.0,21.5,17.0,95,73,58,30.55,30.32,2,0,7,0.00
2013-12-9,37.0,34.1,30.5,36.0,33.2,29.0,97,96,94,30.30,29.93,4,1,8,0.33
2013-12-10,34.1,31.4,25.8,33.0,29.5,20.0,97,92,77,30.10,29.84,6,1,11,0.08
2013-12-11,33.1,27.5,22.3,20.0,18.5,16.0,80,69,55,30.29,30.10,8,2,14,0.05
2013-12-12,28.1,24.0,19.3,18.0,11.1,7.0,74,59,44,30.32,30.13,6,1,12,0.00
2013-12-13,35.0,26.0,16.9,22.0,15.2,9.0,81,64,50,30.28,30.10,11,1,15,0.01
2013-12-14,30.3,25.7,20.9,30.0,21.9,19.0,97,86,72,30.43,29.72,8,2,12,0.00
2013-12-15,38.5,33.9,30.7,34.0,29.6,22.0,97,85,65,29.81,29.47,8,2,17,0.65
2013-12-16,31.4,26.1,17.5,24.0,14.4,10.0,82,62,46,30.18,29.80,8,3,17,0.00
2013-12-17,30.1,25.2,19.4,28.0,21.8,15.0,93,87,70,30.18,29.89,3,0,6,0.00
2013-12-18,37.1,27.9,19.7,26.0,21.4,17.0,91,77,58,30.13,29.88,7,1,14,0.12
2013-12-19,43.8,32.1,20.1,31.0,25.5,18.0,92,77,56,30.15,29.99,6,0,9,0.16
2013-12-20,49.7,40.3,29.8,37.0,33.0,28.0,95,77,57,30.06,29.93,3,0,6,0.04
2013-12-21,61.6,51.9,41.1,55.0,47.9,38.0,97,86,71,29.96,29.85,4,1,7,0.00
2013-12-22,70.1,65.0,58.4,64.0,60.1,55.0,92,84,75,29.91,29.75,6,2,15,0.01
2013-12-23,61.1,54.9,40.8,60.0,53.0,34.0,98,93,77,30.11,29.85,6,1,14,0.56
2013-12-24,41.5,35.2,26.1,34.0,23.6,11.0,86,63,48,30.30,30.05,10,2,15,0.00
2013-12-25,29.2,24.9,18.4,16.0,10.5,8.0,65,55,44,30.49,30.31,6,1,16,0.00
2013-12-26,35.6,30.0,24.3,28.0,23.1,16.0,82,76,65,30.38,30.13,5,0,12,0.00
2013-12-27,41.6,31.1,23.9,24.0,22.1,20.0,87,71,48,30.32,30.22,11,1,12,0.00
2013-12-28,55.9,39.7,24.5,31.0,27.3,22.0,89,64,37,30.24,30.03,9,1,16,0.00
2013-12-29,44.0,41.4,38.4,43.0,36.1,29.0,97,82,64,30.02,29.38,7,1,13,1.09
2013-12-30,45.1,35.2,22.7,38.0,27.9,11.0,95,76,57,30.14,29.65,6,2,12,0.00
2013-12-31,31.2,25.8,18.7,26.0,15.0,11.0,84,64,52,30.25,30.02,7,2,14,0.00
2014-1-1,33.4,28.3,20.7,23.0,17.3,11.0,79,64,55,30.37,30.19,4,1,8,0.00
2014-1-2,32.3,26.2,16.9,25.0,21.8,15.0,92,83,69,30.18,29.62,7,2,14,0.00